DECAM LDPL-EDBM

Flight info

Callsign DECAM
Flight time 3h 5m
Altitude 14000
Route VICKY DCT OGODI DCT GIMIX DCT EVAXI DCT OBEDI DCT LOIJ DCT LANDU
Aircraft SR22/L-SDGRY/S

Departure

Time 2026-05-04 10:39
Airport Pula Airport (LDPL)

Arrival

Time 2026-05-04 13:44
Airport Magdeburg City Airfield (EDBM)
Time Latitude Longitude Altitude Speed Heading
2026-05-04 10:27 44.89662 13.92099 197 ft 0 kts 174°
2026-05-04 10:35 44.89644 13.92109 196 ft 8 kts 130°
2026-05-04 10:35 44.89606 13.92259 205 ft 17 kts 162°
2026-05-04 10:36 44.89577 13.92358 204 ft 20 kts 89°
2026-05-04 10:36 44.89582 13.92575 211 ft 24 kts 91°
2026-05-04 10:36 44.89586 13.92812 217 ft 20 kts 89°
2026-05-04 10:36 44.89480 13.92866 218 ft 19 kts 177°
2026-05-04 10:37 44.89364 13.92855 217 ft 10 kts 237°
2026-05-04 10:37 44.89365 13.92768 214 ft 3 kts 270°
2026-05-04 10:37 44.89355 13.92308 202 ft 83 kts 268°
2026-05-04 10:37 44.89331 13.91336 330 ft 110 kts 266°
2026-05-04 10:39 44.91488 13.85501 1471 ft 123 kts 307°
2026-05-04 10:39 44.92023 13.84508 1766 ft 131 kts 302°
2026-05-04 10:39 44.92504 13.83422 2141 ft 134 kts 296°
2026-05-04 10:40 44.92956 13.82171 2218 ft 152 kts 294°
2026-05-04 10:40 44.93443 13.80794 2289 ft 164 kts 293°
2026-05-04 10:40 44.93995 13.79305 2295 ft 178 kts 297°
2026-05-04 10:40 44.94550 13.77746 2298 ft 175 kts 293°
2026-05-04 10:41 44.95232 13.76350 2286 ft 175 kts 315°
2026-05-04 10:41 44.96163 13.75235 2292 ft 175 kts 318°
2026-05-04 10:41 44.97084 13.74125 2285 ft 173 kts 317°
2026-05-04 10:41 44.98003 13.73029 2286 ft 173 kts 317°
2026-05-04 10:42 44.98917 13.71951 2289 ft 172 kts 319°
2026-05-04 10:42 44.99882 13.70975 2039 ft 172 kts 322°
2026-05-04 10:42 45.00843 13.70040 1986 ft 161 kts 322°
2026-05-04 10:42 45.01745 13.69156 1981 ft 155 kts 322°
2026-05-04 10:43 45.02623 13.68302 1978 ft 151 kts 323°
2026-05-04 10:44 45.09678 13.61403 1985 ft 184 kts 335°
2026-05-04 10:45 45.10895 13.60805 1981 ft 185 kts 339°
2026-05-04 10:45 45.12120 13.60227 1977 ft 185 kts 339°
2026-05-04 10:45 45.13333 13.59646 1977 ft 183 kts 339°
2026-05-04 10:45 45.14522 13.59079 1976 ft 183 kts 339°
2026-05-04 10:46 45.15737 13.58479 1971 ft 182 kts 338°
2026-05-04 10:46 45.16946 13.57918 1965 ft 182 kts 339°
2026-05-04 10:46 45.18139 13.57393 1978 ft 182 kts 339°
2026-05-04 10:46 45.19344 13.56825 1973 ft 182 kts 339°
2026-05-04 10:47 45.20541 13.56256 1971 ft 182 kts 339°
2026-05-04 10:47 45.21763 13.55769 1969 ft 183 kts 347°
2026-05-04 10:47 45.23027 13.55462 1969 ft 185 kts 348°
2026-05-04 10:47 45.24295 13.55156 2070 ft 179 kts 348°
2026-05-04 10:49 45.31929 13.53290 4095 ft 159 kts 348°
2026-05-04 10:49 45.33024 13.53028 4335 ft 160 kts 347°
2026-05-04 10:50 45.34107 13.52770 4583 ft 160 kts 348°
2026-05-04 10:51 45.42610 13.51786 4963 ft 187 kts
2026-05-04 10:52 45.43903 13.52006 4959 ft 187 kts
2026-05-04 10:52 45.45189 13.52239 4969 ft 190 kts
2026-05-04 10:52 45.46498 13.52573 4949 ft 189 kts
2026-05-04 10:54 45.54990 13.54004 6141 ft 162 kts
2026-05-04 10:54 45.56107 13.54202 6394 ft 162 kts
2026-05-04 10:56 45.64287 13.56792 7022 ft 193 kts 34°
2026-05-04 10:56 45.65399 13.57884 7026 ft 194 kts 33°
2026-05-04 10:56 45.66516 13.58971 7026 ft 195 kts 33°
2026-05-04 10:57 45.67635 13.60067 7026 ft 195 kts 33°
2026-05-04 10:57 45.68756 13.61167 7027 ft 196 kts 33°
2026-05-04 10:57 45.69878 13.62268 7029 ft 196 kts 33°
2026-05-04 10:57 45.71002 13.63372 7042 ft 196 kts 33°
2026-05-04 10:58 45.72127 13.64478 7042 ft 196 kts 33°
2026-05-04 10:58 45.73251 13.65582 7044 ft 196 kts 33°
2026-05-04 10:58 45.74363 13.66676 7048 ft 196 kts 33°
2026-05-04 10:58 45.75496 13.67796 7037 ft 199 kts 31°
2026-05-04 10:59 45.76639 13.68910 7044 ft 198 kts 31°
2026-05-04 10:59 45.77767 13.70028 7034 ft 195 kts 32°
2026-05-04 10:59 45.78842 13.71111 7030 ft 185 kts 31°
2026-05-04 10:59 45.79917 13.72159 7028 ft 188 kts 31°
2026-05-04 11:00 45.81005 13.73219 7023 ft 190 kts 31°
2026-05-04 11:01 45.88643 13.80766 7024 ft 191 kts 32°
2026-05-04 11:02 45.89738 13.81855 7019 ft 190 kts 32°
2026-05-04 11:02 45.90829 13.82947 7019 ft 191 kts 32°
2026-05-04 11:05 46.06543 13.86559 8504 ft 162 kts 341°
2026-05-04 11:06 46.07638 13.86194 8773 ft 162 kts 341°
2026-05-04 11:06 46.08751 13.85821 9011 ft 168 kts 341°
2026-05-04 11:06 46.09948 13.85424 9021 ft 182 kts 343°
2026-05-04 11:06 46.11216 13.85023 9035 ft 190 kts 343°
2026-05-04 11:08 46.20503 13.81966 9027 ft 196 kts 343°
2026-05-04 11:10 46.29608 13.78932 9012 ft 182 kts 341°
2026-05-04 11:12 46.38714 13.75904 9014 ft 197 kts 341°
2026-05-04 11:12 46.40076 13.75484 9006 ft 201 kts 340°
2026-05-04 11:12 46.41442 13.75036 9001 ft 201 kts 343°
2026-05-04 11:12 46.42801 13.74578 9009 ft 199 kts 340°
2026-05-04 11:13 46.44132 13.74133 9004 ft 198 kts 341°
2026-05-04 11:13 46.45452 13.73683 8991 ft 192 kts 340°
2026-05-04 11:13 46.46752 13.73247 9003 ft 190 kts 341°
2026-05-04 11:13 46.48052 13.72795 8988 ft 193 kts 341°
2026-05-04 11:14 46.49363 13.72386 8994 ft 191 kts 342°
2026-05-04 11:14 46.50665 13.71983 8988 ft 191 kts 341°
2026-05-04 11:14 46.51942 13.71529 8991 ft 186 kts 341°
2026-05-04 11:16 46.59301 13.66032 10559 ft 165 kts 326°
2026-05-04 11:16 46.60326 13.65247 10855 ft 167 kts 327°
2026-05-04 11:16 46.61361 13.64465 11083 ft 168 kts 328°
2026-05-04 11:17 46.62384 13.63680 11312 ft 168 kts 326°
2026-05-04 11:17 46.63425 13.62877 11567 ft 170 kts 327°
2026-05-04 11:19 46.71534 13.56678 12088 ft 206 kts 329°
2026-05-04 11:19 46.72803 13.55701 12090 ft 206 kts 328°
2026-05-04 11:19 46.74067 13.54730 12081 ft 209 kts 328°
2026-05-04 11:19 46.75337 13.53749 12071 ft 205 kts 327°
2026-05-04 11:20 46.76600 13.52774 12077 ft 204 kts 328°
2026-05-04 11:20 46.77869 13.51889 12068 ft 202 kts 337°
2026-05-04 11:20 46.79250 13.51425 12075 ft 204 kts 343°
2026-05-04 11:20 46.80631 13.50959 12073 ft 203 kts 343°
2026-05-04 11:22 46.90146 13.47685 12063 ft 198 kts 342°
2026-05-04 11:22 46.91485 13.47233 12072 ft 197 kts 343°
2026-05-04 11:23 46.92844 13.46771 12064 ft 202 kts 343°
2026-05-04 11:23 46.93752 13.46471 12057 ft 200 kts 344°
2026-05-04 11:24 47.01188 13.43882 13417 ft 182 kts 341°
2026-05-04 11:25 47.02405 13.43469 13718 ft 181 kts 342°
2026-05-04 11:25 47.03653 13.43039 14004 ft 183 kts 342°
2026-05-04 11:25 47.04914 13.42601 14054 ft 193 kts 343°
2026-05-04 11:26 47.07649 13.41673 14065 ft 208 kts 342°
2026-05-04 11:27 47.17761 13.38181 14051 ft 217 kts 342°
2026-05-04 11:28 47.19230 13.37676 14041 ft 215 kts 343°
2026-05-04 11:28 47.20692 13.37160 14039 ft 217 kts 343°
2026-05-04 11:28 47.22160 13.36647 14039 ft 217 kts 343°
2026-05-04 11:28 47.23628 13.36143 14048 ft 216 kts 343°
2026-05-04 11:29 47.25102 13.35632 14029 ft 218 kts 343°
2026-05-04 11:29 47.26576 13.35122 14035 ft 216 kts 342°
2026-05-04 11:29 47.28037 13.34610 14031 ft 215 kts 343°
2026-05-04 11:29 47.29493 13.34103 14036 ft 215 kts 343°
2026-05-04 11:31 47.34931 13.23430 10757 ft 192 kts 285°
2026-05-04 11:33 47.37790 13.10396 10010 ft 185 kts 284°
2026-05-04 11:33 47.38194 13.08602 9964 ft 185 kts 284°
2026-05-04 11:33 47.38613 13.06743 9420 ft 195 kts 284°
2026-05-04 11:34 47.39040 13.04841 8984 ft 194 kts 284°
2026-05-04 11:34 47.39462 13.02948 8603 ft 195 kts 289°
2026-05-04 11:34 47.39889 13.01049 8251 ft 194 kts 285°
2026-05-04 11:34 47.40284 12.99182 7893 ft 192 kts 285°
2026-05-04 11:35 47.40696 12.97306 7512 ft 192 kts 286°
2026-05-04 11:35 47.41117 12.95436 7257 ft 191 kts 286°
2026-05-04 11:35 47.41523 12.93589 6828 ft 188 kts 283°
2026-05-04 11:35 47.41918 12.91739 6448 ft 189 kts 285°
2026-05-04 11:36 47.42299 12.89895 6046 ft 187 kts 279°
2026-05-04 11:36 47.42120 12.88051 5546 ft 180 kts 245°
2026-05-04 11:36 47.41601 12.86497 5332 ft 161 kts 243°
2026-05-04 11:36 47.41093 12.85036 4942 ft 160 kts 237°
2026-05-04 11:37 47.40368 12.83849 4635 ft 153 kts 224°
2026-05-04 11:37 47.39565 12.82868 4435 ft 150 kts 218°
2026-05-04 11:37 47.38684 12.82092 4273 ft 145 kts 204°
2026-05-04 11:37 47.37740 12.81647 4226 ft 142 kts 188°
2026-05-04 11:38 47.36745 12.81506 4148 ft 143 kts 186°
2026-05-04 11:38 47.35761 12.81322 4070 ft 141 kts 187°
2026-05-04 11:38 47.34800 12.81165 4062 ft 136 kts 187°
2026-05-04 11:38 47.33859 12.81024 4047 ft 137 kts 185°
2026-05-04 11:39 47.32898 12.80942 3931 ft 139 kts 183°
2026-05-04 11:39 47.31923 12.80831 3748 ft 141 kts 191°
2026-05-04 11:40 47.29303 12.74513 3195 ft 110 kts 210°
2026-05-04 11:41 47.28697 12.74931 2916 ft 126 kts 108°
2026-05-04 11:41 47.28693 12.76177 2838 ft 109 kts 91°
2026-05-04 11:41 47.28840 12.77227 2697 ft 101 kts 79°
2026-05-04 11:41 47.29003 12.78185 2541 ft 93 kts 80°
2026-05-04 11:42 47.29143 12.79050 2477 ft 74 kts 78°
2026-05-04 11:42 47.29216 12.79458 2475 ft 12 kts 20°
2026-05-04 11:42 47.29252 12.79405 2474 ft 13 kts 349°
2026-05-04 11:42 47.29278 12.79307 2472 ft 15 kts 255°
2026-05-04 11:43 47.29250 12.79147 2473 ft 17 kts 257°
2026-05-04 11:43 47.29225 12.78998 2474 ft 17 kts 255°
2026-05-04 11:43 47.29196 12.78827 2474 ft 16 kts 256°
2026-05-04 11:43 47.29192 12.78687 2474 ft 10 kts 316°
2026-05-04 11:44 47.29197 12.78600 2477 ft 0 kts 202°
2026-05-04 11:51 47.29185 12.78595 2475 ft 8 kts 190°
2026-05-04 11:51 47.29102 12.78585 2478 ft 13 kts 182°
2026-05-04 11:51 47.29078 12.78634 2477 ft 11 kts 76°
2026-05-04 11:52 47.29164 12.79134 2476 ft 85 kts 77°
2026-05-04 11:52 47.29363 12.80089 2694 ft 104 kts 76°
2026-05-04 11:52 47.29726 12.81125 2958 ft 128 kts 29°
2026-05-04 11:52 47.30627 12.81023 3151 ft 142 kts 345°
2026-05-04 11:53 47.31625 12.80719 3261 ft 147 kts 351°
2026-05-04 11:53 47.32652 12.80633 3377 ft 148 kts 355°
2026-05-04 11:53 47.33703 12.80607 3393 ft 155 kts 357°
2026-05-04 11:53 47.34793 12.80583 3502 ft 158 kts 359°
2026-05-04 11:55 47.42235 12.83029 5040 ft 149 kts 358°
2026-05-04 11:55 47.43197 12.82557 5335 ft 148 kts 310°
2026-05-04 11:56 47.43516 12.81158 5503 ft 150 kts 274°
2026-05-04 11:56 47.43613 12.79633 5681 ft 148 kts 270°
2026-05-04 11:56 47.43724 12.78139 5931 ft 146 kts 269°
2026-05-04 11:56 47.43809 12.76654 6264 ft 145 kts 270°
2026-05-04 11:57 47.43942 12.75172 6573 ft 146 kts 273°
2026-05-04 11:57 47.43972 12.73688 6908 ft 143 kts 266°
2026-05-04 11:57 47.43987 12.72199 7214 ft 146 kts 267°
2026-05-04 11:57 47.44094 12.70680 7520 ft 151 kts 279°
2026-05-04 11:58 47.44380 12.69186 7769 ft 150 kts 280°
2026-05-04 11:58 47.44810 12.67764 7965 ft 155 kts 298°
2026-05-04 11:58 47.45422 12.66451 8157 ft 159 kts 299°
2026-05-04 11:58 47.46140 12.65261 8650 ft 153 kts 315°
2026-05-04 11:59 47.47077 12.64380 8821 ft 166 kts 329°
2026-05-04 11:59 47.48099 12.63590 9111 ft 166 kts 329°
2026-05-04 11:59 47.49210 12.63058 9328 ft 173 kts 351°
2026-05-04 11:59 47.50420 12.63352 9372 ft 183 kts 22°
2026-05-04 12:00 47.51562 12.64103 9574 ft 184 kts 22°
2026-05-04 12:00 47.52821 12.64546 9655 ft 190 kts 357°
2026-05-04 12:00 47.54105 12.64083 9765 ft 194 kts 337°
2026-05-04 12:00 47.55355 12.63391 9888 ft 192 kts 334°
2026-05-04 12:01 47.56575 12.62621 10008 ft 189 kts 330°
2026-05-04 12:01 47.57685 12.61545 9915 ft 193 kts 298°
2026-05-04 12:02 47.63187 12.53021 10282 ft 194 kts 313°
2026-05-04 12:03 47.64232 12.51776 10333 ft 194 kts 317°
2026-05-04 12:03 47.65297 12.50548 10306 ft 194 kts 314°
2026-05-04 12:03 47.66327 12.49274 10346 ft 194 kts 315°
2026-05-04 12:03 47.67393 12.48020 10327 ft 196 kts 315°
2026-05-04 12:04 47.68450 12.46730 10337 ft 197 kts 317°
2026-05-04 12:04 47.69738 12.45902 10237 ft 205 kts 345°
2026-05-04 12:04 47.71159 12.45770 10117 ft 205 kts 355°
2026-05-04 12:04 47.72565 12.45687 9934 ft 202 kts 353°
2026-05-04 12:05 47.73953 12.45509 9673 ft 201 kts 351°
2026-05-04 12:05 47.75326 12.45239 9443 ft 197 kts 349°
2026-05-04 12:05 47.76659 12.44938 9224 ft 193 kts 348°
2026-05-04 12:05 47.78003 12.44631 8876 ft 196 kts 349°
2026-05-04 12:06 47.79334 12.44284 8633 ft 193 kts 346°
2026-05-04 12:06 47.80629 12.43818 8453 ft 188 kts 342°
2026-05-04 12:06 47.81880 12.43279 8134 ft 191 kts 339°
2026-05-04 12:06 47.83190 12.42810 7851 ft 189 kts 339°
2026-05-04 12:07 47.84468 12.42382 7567 ft 190 kts 344°
2026-05-04 12:07 47.85715 12.41799 7374 ft 183 kts 335°
2026-05-04 12:07 47.86850 12.41000 7031 ft 188 kts 336°
2026-05-04 12:07 47.88071 12.40288 6820 ft 185 kts 333°
2026-05-04 12:08 47.89213 12.39441 6671 ft 181 kts 329°
2026-05-04 12:08 47.90315 12.38555 6664 ft 181 kts 328°
2026-05-04 12:08 47.91412 12.37598 6652 ft 184 kts 325°
2026-05-04 12:08 47.92532 12.36653 6654 ft 185 kts 332°
2026-05-04 12:09 47.93808 12.36480 6659 ft 189 kts 13°
2026-05-04 12:09 47.95015 12.37221 6682 ft 187 kts 22°
2026-05-04 12:09 47.96267 12.37745 6709 ft 187 kts
2026-05-04 12:09 47.97561 12.37675 6766 ft 186 kts 350°
2026-05-04 12:10 47.98843 12.37398 6770 ft 186 kts 351°
2026-05-04 12:10 47.99687 12.37240 6808 ft 184 kts 351°
2026-05-04 12:10 48.00963 12.37027 6789 ft 184 kts 349°
2026-05-04 12:10 48.02049 12.36136 6832 ft 179 kts 307°
2026-05-04 12:11 48.02660 12.34542 6838 ft 176 kts 293°
2026-05-04 12:11 48.03219 12.32911 6892 ft 176 kts 294°
2026-05-04 12:11 48.03983 12.30760 6909 ft 177 kts 294°
2026-05-04 12:11 48.04377 12.29661 6912 ft 178 kts 294°
2026-05-04 12:12 48.04953 12.28028 6926 ft 178 kts 294°
2026-05-04 12:12 48.05519 12.26402 6834 ft 183 kts 294°
2026-05-04 12:12 48.06135 12.24688 6405 ft 190 kts 295°
2026-05-04 12:12 48.06753 12.22940 6053 ft 189 kts 294°
2026-05-04 12:13 48.07327 12.21240 5975 ft 177 kts 293°
2026-05-04 12:14 48.11231 12.09665 5984 ft 180 kts 293°
2026-05-04 12:15 48.11802 12.07991 5986 ft 181 kts 293°
2026-05-04 12:15 48.12380 12.06316 5982 ft 180 kts 294°
2026-05-04 12:15 48.12735 12.04582 5991 ft 177 kts 275°
2026-05-04 12:15 48.12912 12.02753 5985 ft 177 kts 274°
2026-05-04 12:16 48.13066 12.00934 5990 ft 175 kts 274°
2026-05-04 12:16 48.13190 11.99124 5990 ft 175 kts 273°
2026-05-04 12:16 48.13317 11.97316 5989 ft 175 kts 275°
2026-05-04 12:16 48.13449 11.95487 5830 ft 173 kts 274°
2026-05-04 12:17 48.13574 11.93705 5541 ft 176 kts 274°
2026-05-04 12:17 48.13700 11.91877 5279 ft 176 kts 274°
2026-05-04 12:17 48.13806 11.90032 5009 ft 182 kts 274°
2026-05-04 12:17 48.13895 11.88133 4992 ft 181 kts 274°
2026-05-04 12:18 48.13984 11.86256 4989 ft 180 kts 274°
2026-05-04 12:18 48.14090 11.84362 4988 ft 183 kts 274°
2026-05-04 12:18 48.14158 11.82471 4982 ft 180 kts 273°
2026-05-04 12:18 48.14243 11.80597 4991 ft 181 kts 274°
2026-05-04 12:19 48.14339 11.78719 4994 ft 181 kts 274°
2026-05-04 12:19 48.14424 11.76831 4987 ft 182 kts 273°
2026-05-04 12:19 48.14502 11.74969 4909 ft 178 kts 274°
2026-05-04 12:19 48.14593 11.73076 4571 ft 185 kts 274°
2026-05-04 12:20 48.14684 11.71182 4408 ft 182 kts 275°
2026-05-04 12:20 48.14769 11.69257 4113 ft 186 kts 273°
2026-05-04 12:20 48.14853 11.67304 3979 ft 186 kts 274°
2026-05-04 12:20 48.14919 11.65413 3988 ft 181 kts 274°
2026-05-04 12:21 48.14991 11.63558 3993 ft 181 kts 274°
2026-05-04 12:21 48.15068 11.61692 3989 ft 180 kts 274°
2026-05-04 12:21 48.15143 11.59796 3981 ft 184 kts 274°
2026-05-04 12:21 48.15203 11.57897 3990 ft 181 kts 273°
2026-05-04 12:22 48.15378 11.56041 3968 ft 178 kts 296°
2026-05-04 12:22 48.16074 11.54551 3988 ft 174 kts 313°
2026-05-04 12:22 48.16841 11.53110 3984 ft 177 kts 310°
2026-05-04 12:22 48.17687 11.51820 3980 ft 172 kts 333°
2026-05-04 12:23 48.18835 11.51516 3985 ft 168 kts
2026-05-04 12:23 48.19975 11.51581 3979 ft 165 kts
2026-05-04 12:23 48.21109 11.51637 3861 ft 157 kts
2026-05-04 12:23 48.22235 11.51694 3213 ft 169 kts
2026-05-04 12:24 48.23435 11.51743 2985 ft 170 kts
2026-05-04 12:24 48.24600 11.51735 2992 ft 165 kts 359°
2026-05-04 12:24 48.25734 11.51533 2986 ft 164 kts 355°
2026-05-04 12:24 48.26861 11.51306 2984 ft 163 kts 354°
2026-05-04 12:25 48.27967 11.51070 2989 ft 161 kts 353°
2026-05-04 12:25 48.29080 11.50830 2980 ft 162 kts 355°
2026-05-04 12:25 48.30209 11.50598 2981 ft 166 kts 355°
2026-05-04 12:25 48.31339 11.50291 2985 ft 165 kts 348°
2026-05-04 12:26 48.32470 11.49818 2992 ft 173 kts 346°
2026-05-04 12:26 48.33651 11.49399 2985 ft 174 kts 351°
2026-05-04 12:26 48.34830 11.49008 2980 ft 174 kts 351°
2026-05-04 12:26 48.35992 11.48606 2993 ft 171 kts 349°
2026-05-04 12:27 48.37150 11.48183 2991 ft 169 kts 349°
2026-05-04 12:27 48.38297 11.47767 2987 ft 168 kts 350°
2026-05-04 12:27 48.39450 11.47388 2992 ft 171 kts 347°
2026-05-04 12:27 48.40598 11.46946 2983 ft 168 kts 347°
2026-05-04 12:28 48.41741 11.46540 2991 ft 169 kts 349°
2026-05-04 12:28 48.42878 11.46155 2982 ft 165 kts 351°
2026-05-04 12:28 48.44019 11.45803 2994 ft 169 kts 353°
2026-05-04 12:28 48.45162 11.45419 2987 ft 168 kts 351°
2026-05-04 12:29 48.46289 11.44995 2984 ft 170 kts 349°
2026-05-04 12:29 48.47448 11.44588 2984 ft 171 kts 350°
2026-05-04 12:29 48.48597 11.44170 2986 ft 169 kts 348°
2026-05-04 12:29 48.49740 11.43768 2995 ft 169 kts 349°
2026-05-04 12:30 48.50904 11.43371 2977 ft 170 kts 350°
2026-05-04 12:30 48.52041 11.42953 2980 ft 168 kts 347°
2026-05-04 12:30 48.53181 11.42540 2979 ft 168 kts 348°
2026-05-04 12:30 48.54314 11.42146 2989 ft 167 kts 349°
2026-05-04 12:31 48.55454 11.41744 2983 ft 168 kts 348°
2026-05-04 12:31 48.56569 11.41361 2977 ft 165 kts 348°
2026-05-04 12:31 48.57642 11.40969 3341 ft 149 kts 346°
2026-05-04 12:31 48.58635 11.40612 3684 ft 147 kts 348°
2026-05-04 12:32 48.59633 11.40263 3957 ft 148 kts 349°
2026-05-04 12:32 48.61655 11.39554 4515 ft 149 kts 348°
2026-05-04 12:32 48.62669 11.39194 4785 ft 150 kts 347°
2026-05-04 12:33 48.63692 11.38831 5017 ft 152 kts 348°
2026-05-04 12:33 48.64725 11.38464 5271 ft 153 kts 347°
2026-05-04 12:33 48.65774 11.38091 5531 ft 156 kts 347°
2026-05-04 12:33 48.66835 11.37716 5806 ft 158 kts 346°
2026-05-04 12:34 48.67908 11.37336 6054 ft 159 kts 346°
2026-05-04 12:34 48.68998 11.36949 6335 ft 161 kts 346°
2026-05-04 12:34 48.70092 11.36564 6587 ft 162 kts 346°
2026-05-04 12:34 48.71193 11.36172 6834 ft 163 kts 346°
2026-05-04 12:35 48.72305 11.35779 7087 ft 164 kts 345°
2026-05-04 12:35 48.73406 11.35386 7341 ft 165 kts 345°
2026-05-04 12:35 48.74533 11.34986 7593 ft 166 kts 344°
2026-05-04 12:35 48.75657 11.34587 7879 ft 166 kts 343°
2026-05-04 12:36 48.76784 11.34184 8152 ft 167 kts 343°
2026-05-04 12:36 48.77924 11.33777 8427 ft 168 kts 343°
2026-05-04 12:36 48.79069 11.33369 8687 ft 169 kts 343°
2026-05-04 12:36 48.80225 11.32957 8955 ft 171 kts 342°
2026-05-04 12:37 48.81428 11.32526 8981 ft 185 kts 343°
2026-05-04 12:37 48.82697 11.32079 8981 ft 193 kts 343°
2026-05-04 12:37 48.84022 11.31612 8982 ft 198 kts 343°
2026-05-04 12:37 48.85376 11.31130 8978 ft 201 kts 343°
2026-05-04 12:38 48.86749 11.30641 8983 ft 203 kts 343°
2026-05-04 12:38 48.88129 11.30139 8981 ft 203 kts 343°
2026-05-04 12:38 48.89492 11.29657 8979 ft 200 kts 343°
2026-05-04 12:38 48.90853 11.29173 8980 ft 200 kts 342°
2026-05-04 12:39 48.92209 11.28678 8984 ft 201 kts 343°
2026-05-04 12:39 48.93547 11.28204 8981 ft 200 kts 343°
2026-05-04 12:39 48.94891 11.27733 8975 ft 197 kts 343°
2026-05-04 12:39 48.96223 11.27261 8971 ft 195 kts 343°
2026-05-04 12:40 48.97538 11.26785 8967 ft 192 kts 342°
2026-05-04 12:40 48.98828 11.26318 8973 ft 190 kts 342°
2026-05-04 12:40 49.00116 11.25855 8967 ft 190 kts 342°
2026-05-04 12:40 49.01400 11.25390 8978 ft 190 kts 342°
2026-05-04 12:41 49.02687 11.24928 8976 ft 190 kts 342°
2026-05-04 12:41 49.03974 11.24464 8979 ft 190 kts 342°
2026-05-04 12:41 49.05266 11.23999 8976 ft 190 kts 342°
2026-05-04 12:41 49.06557 11.23535 8981 ft 190 kts 342°
2026-05-04 12:42 49.07830 11.23076 8977 ft 190 kts 342°
2026-05-04 12:42 49.09104 11.22625 8843 ft 187 kts 343°
2026-05-04 12:42 49.10381 11.22172 8515 ft 189 kts 343°
2026-05-04 12:42 49.11653 11.21711 8251 ft 187 kts 343°
2026-05-04 12:43 49.12914 11.21255 7977 ft 186 kts 343°
2026-05-04 12:43 49.14165 11.20803 7726 ft 184 kts 344°
2026-05-04 12:43 49.15411 11.20349 7454 ft 183 kts 344°
2026-05-04 12:43 49.16658 11.19896 6990 ft 191 kts 345°
2026-05-04 12:44 49.17971 11.19426 6537 ft 193 kts 346°
2026-05-04 12:44 49.19259 11.18964 6175 ft 190 kts 345°
2026-05-04 12:44 49.20547 11.18497 5770 ft 189 kts 344°
2026-05-04 12:44 49.21814 11.18032 5430 ft 185 kts 345°
2026-05-04 12:45 49.23066 11.17577 5127 ft 184 kts 346°
2026-05-04 12:45 49.24314 11.17158 4948 ft 182 kts 344°
2026-05-04 12:45 49.25542 11.16688 4754 ft 182 kts 353°
2026-05-04 12:45 49.26787 11.16469 4481 ft 181 kts 347°
2026-05-04 12:46 49.27971 11.15851 4280 ft 179 kts 340°
2026-05-04 12:46 49.29162 11.15283 3991 ft 176 kts 345°
2026-05-04 12:46 49.30335 11.14907 3702 ft 173 kts 346°
2026-05-04 12:46 49.31526 11.14756 3360 ft 173 kts
2026-05-04 12:47 49.32696 11.15239 3035 ft 174 kts 20°
2026-05-04 12:47 49.33685 11.16175 2854 ft 169 kts 39°
2026-05-04 12:47 49.34548 11.17435 2528 ft 173 kts 42°
2026-05-04 12:47 49.35483 11.18537 2380 ft 165 kts 33°
2026-05-04 12:48 49.36447 11.19424 2243 ft 160 kts 27°
2026-05-04 12:48 49.37478 11.20068 2238 ft 161 kts
2026-05-04 12:48 49.38618 11.20133 2197 ft 164 kts 356°
2026-05-04 12:48 49.39731 11.19848 2218 ft 163 kts 342°
2026-05-04 12:49 49.40786 11.19222 2298 ft 162 kts 329°
2026-05-04 12:49 49.41618 11.18100 2361 ft 157 kts 314°
2026-05-04 12:49 49.42548 11.17243 2374 ft 159 kts 340°
2026-05-04 12:49 49.43639 11.16972 2419 ft 161 kts 355°
2026-05-04 12:50 49.44771 11.17042 2453 ft 163 kts
2026-05-04 12:50 49.45912 11.17121 2504 ft 163 kts
2026-05-04 12:50 49.47052 11.17212 2595 ft 163 kts
2026-05-04 12:50 49.48187 11.17332 2601 ft 166 kts
2026-05-04 12:51 49.49333 11.17495 2628 ft 164 kts
2026-05-04 12:51 49.50467 11.17587 2636 ft 164 kts
2026-05-04 12:51 49.51601 11.17671 2685 ft 162 kts
2026-05-04 12:51 49.52694 11.17997 2692 ft 165 kts 12°
2026-05-04 12:52 49.53798 11.18476 2759 ft 166 kts 14°
2026-05-04 12:52 49.54893 11.19005 2802 ft 165 kts 17°
2026-05-04 12:52 49.55974 11.19609 2836 ft 167 kts 18°
2026-05-04 12:52 49.57088 11.20152 2860 ft 167 kts 13°
2026-05-04 12:53 49.58223 11.20585 2906 ft 168 kts 11°
2026-05-04 12:53 49.59353 11.20995 2936 ft 167 kts 11°
2026-05-04 12:53 49.60479 11.21423 2982 ft 165 kts 11°
2026-05-04 12:53 49.61612 11.21748 2989 ft 166 kts
2026-05-04 12:54 49.62753 11.21850 3003 ft 166 kts
2026-05-04 12:54 49.63927 11.21955 2989 ft 170 kts
2026-05-04 12:54 49.65101 11.22162 2989 ft 170 kts
2026-05-04 12:54 49.66276 11.22372 2985 ft 169 kts
2026-05-04 12:55 49.67450 11.22555 2989 ft 171 kts
2026-05-04 12:55 49.68635 11.22745 3102 ft 170 kts
2026-05-04 12:55 49.69815 11.22934 3190 ft 170 kts
2026-05-04 12:55 49.70988 11.23121 3276 ft 169 kts
2026-05-04 12:56 49.72147 11.23309 3393 ft 170 kts
2026-05-04 12:56 49.73322 11.23506 3509 ft 170 kts
2026-05-04 12:56 49.74502 11.23694 3668 ft 171 kts
2026-05-04 12:56 49.75684 11.23893 3771 ft 171 kts
2026-05-04 12:57 49.76848 11.24070 4027 ft 160 kts
2026-05-04 12:57 49.77864 11.24234 4654 ft 137 kts
2026-05-04 12:57 49.78776 11.24374 5171 ft 131 kts
2026-05-04 12:57 49.79707 11.24518 5551 ft 136 kts
2026-05-04 12:58 49.80649 11.24670 5970 ft 136 kts
2026-05-04 12:58 49.81593 11.24825 6374 ft 138 kts
2026-05-04 12:58 49.82559 11.24982 6755 ft 140 kts
2026-05-04 12:58 49.83530 11.25141 7156 ft 141 kts
2026-05-04 12:59 49.84509 11.25310 7548 ft 142 kts
2026-05-04 12:59 49.85501 11.25465 7951 ft 144 kts
2026-05-04 12:59 49.86492 11.25622 8349 ft 146 kts
2026-05-04 12:59 49.87505 11.25789 8769 ft 147 kts
2026-05-04 13:00 49.88517 11.25956 9191 ft 146 kts
2026-05-04 13:00 49.89547 11.26121 9487 ft 157 kts
2026-05-04 13:00 49.90713 11.26309 9498 ft 177 kts
2026-05-04 13:00 49.91982 11.26529 9497 ft 188 kts
2026-05-04 13:01 49.93315 11.26752 9491 ft 196 kts
2026-05-04 13:01 49.94686 11.26980 9492 ft 200 kts
2026-05-04 13:01 49.95605 11.27133 9495 ft 201 kts
2026-05-04 13:01 49.97459 11.27433 9493 ft 202 kts
2026-05-04 13:02 49.98864 11.27662 9497 ft 203 kts
2026-05-04 13:02 50.00275 11.27892 9497 ft 204 kts
2026-05-04 13:02 50.01215 11.28046 9492 ft 205 kts
2026-05-04 13:02 50.02630 11.28276 9490 ft 204 kts
2026-05-04 13:03 50.04047 11.28509 9492 ft 205 kts
2026-05-04 13:03 50.05924 11.28815 9495 ft 205 kts
2026-05-04 13:03 50.07348 11.29050 9490 ft 206 kts
2026-05-04 13:03 50.08305 11.29208 9491 ft 204 kts
2026-05-04 13:04 50.09723 11.29442 9493 ft 205 kts
2026-05-04 13:04 50.11096 11.29673 9492 ft 199 kts
2026-05-04 13:04 50.12461 11.29897 9492 ft 196 kts
2026-05-04 13:04 50.13815 11.30117 9485 ft 195 kts
2026-05-04 13:05 50.15164 11.30338 9487 ft 195 kts
2026-05-04 13:05 50.16511 11.30557 9483 ft 194 kts
2026-05-04 13:05 50.17857 11.30780 9481 ft 194 kts
2026-05-04 13:05 50.19201 11.31003 9481 ft 194 kts
2026-05-04 13:06 50.20531 11.31225 9483 ft 194 kts
2026-05-04 13:06 50.21873 11.31446 9486 ft 194 kts
2026-05-04 13:06 50.23214 11.31666 9483 ft 194 kts
2026-05-04 13:06 50.24550 11.31889 9482 ft 192 kts
2026-05-04 13:07 50.25883 11.32098 9488 ft 193 kts
2026-05-04 13:07 50.27224 11.32327 9483 ft 193 kts
2026-05-04 13:07 50.28563 11.32551 9489 ft 194 kts
2026-05-04 13:07 50.29906 11.32774 9485 ft 194 kts
2026-05-04 13:08 50.31247 11.32997 9484 ft 193 kts
2026-05-04 13:08 50.32585 11.33216 9493 ft 194 kts
2026-05-04 13:08 50.33911 11.33439 9489 ft 194 kts
2026-05-04 13:08 50.35250 11.33663 9491 ft 193 kts
2026-05-04 13:09 50.36591 11.33883 9488 ft 194 kts
2026-05-04 13:09 50.37934 11.34109 9487 ft 194 kts
2026-05-04 13:09 50.39278 11.34334 9484 ft 192 kts
2026-05-04 13:09 50.40610 11.34553 9481 ft 192 kts
2026-05-04 13:10 50.41925 11.34773 9477 ft 193 kts
2026-05-04 13:10 50.43257 11.34994 9479 ft 192 kts
2026-05-04 13:10 50.44596 11.35223 9477 ft 194 kts
2026-05-04 13:10 50.45935 11.35442 9475 ft 192 kts
2026-05-04 13:11 50.47261 11.35660 9475 ft 191 kts
2026-05-04 13:11 50.48587 11.35881 9477 ft 192 kts
2026-05-04 13:11 50.49915 11.36107 9472 ft 192 kts
2026-05-04 13:11 50.51239 11.36332 9479 ft 189 kts
2026-05-04 13:12 50.52537 11.36540 9479 ft 191 kts
2026-05-04 13:12 50.53862 11.36761 9473 ft 191 kts
2026-05-04 13:12 50.55175 11.36981 9481 ft 190 kts
2026-05-04 13:12 50.56493 11.37206 9482 ft 190 kts
2026-05-04 13:13 50.57801 11.37427 9478 ft 189 kts
2026-05-04 13:13 50.59107 11.37645 9477 ft 189 kts
2026-05-04 13:13 50.60405 11.37862 9475 ft 190 kts
2026-05-04 13:13 50.61721 11.38084 9476 ft 190 kts
2026-05-04 13:14 50.63029 11.38277 9479 ft 189 kts
2026-05-04 13:14 50.64345 11.38515 9477 ft 190 kts
2026-05-04 13:14 50.65666 11.38756 9478 ft 191 kts
2026-05-04 13:14 50.66990 11.38978 9478 ft 191 kts
2026-05-04 13:15 50.68297 11.39195 9480 ft 191 kts
2026-05-04 13:15 50.69619 11.39415 9480 ft 190 kts
2026-05-04 13:15 50.70940 11.39638 9481 ft 191 kts
2026-05-04 13:15 50.72261 11.39860 9479 ft 191 kts
2026-05-04 13:16 50.73588 11.40084 9479 ft 192 kts
2026-05-04 13:16 50.74914 11.40308 9484 ft 192 kts
2026-05-04 13:16 50.76248 11.40533 9481 ft 192 kts
2026-05-04 13:16 50.77579 11.40758 9486 ft 192 kts
2026-05-04 13:17 50.78898 11.40982 9480 ft 193 kts
2026-05-04 13:17 50.80235 11.41209 9478 ft 193 kts
2026-05-04 13:17 50.81569 11.41436 9478 ft 192 kts
2026-05-04 13:17 50.82904 11.41660 9477 ft 193 kts
2026-05-04 13:18 50.84242 11.41888 9479 ft 193 kts
2026-05-04 13:18 50.85580 11.42115 9478 ft 193 kts
2026-05-04 13:18 50.86915 11.42340 9479 ft 192 kts
2026-05-04 13:18 50.88254 11.42568 9475 ft 193 kts
2026-05-04 13:19 50.89571 11.42792 9473 ft 193 kts
2026-05-04 13:19 50.90904 11.43020 9471 ft 192 kts
2026-05-04 13:19 50.92235 11.43247 9471 ft 192 kts
2026-05-04 13:19 50.93567 11.43471 9473 ft 193 kts
2026-05-04 13:20 50.94902 11.43701 9473 ft 192 kts
2026-05-04 13:20 50.96237 11.43929 9471 ft 192 kts
2026-05-04 13:20 50.97552 11.44152 9470 ft 192 kts
2026-05-04 13:20 50.98878 11.44378 9471 ft 192 kts
2026-05-04 13:21 51.00206 11.44606 9469 ft 192 kts
2026-05-04 13:21 51.01536 11.44835 9480 ft 192 kts
2026-05-04 13:21 51.02870 11.45059 9480 ft 193 kts
2026-05-04 13:21 51.04216 11.45287 9479 ft 195 kts
2026-05-04 13:22 51.05570 11.45521 9480 ft 196 kts
2026-05-04 13:22 51.06921 11.45754 9485 ft 196 kts
2026-05-04 13:22 51.08257 11.45982 9526 ft 194 kts
2026-05-04 13:22 51.09592 11.46210 9647 ft 190 kts
2026-05-04 13:23 51.10910 11.46438 9665 ft 192 kts
2026-05-04 13:23 51.12252 11.46670 9666 ft 195 kts
2026-05-04 13:23 51.13608 11.46901 9666 ft 196 kts
2026-05-04 13:23 51.14971 11.47135 9670 ft 197 kts
2026-05-04 13:24 51.16340 11.47373 9670 ft 198 kts
2026-05-04 13:24 51.17690 11.47607 9669 ft 197 kts
2026-05-04 13:24 51.19057 11.47842 9671 ft 198 kts
2026-05-04 13:25 51.21798 11.48313 9673 ft 198 kts
2026-05-04 13:25 51.23166 11.48550 9674 ft 198 kts
2026-05-04 13:25 51.24535 11.48785 9679 ft 198 kts
2026-05-04 13:25 51.25907 11.49024 9675 ft 198 kts
2026-05-04 13:26 51.27277 11.49259 9678 ft 197 kts
2026-05-04 13:26 51.28646 11.49496 9675 ft 198 kts
2026-05-04 13:26 51.29997 11.49730 9665 ft 197 kts
2026-05-04 13:26 51.31359 11.49967 9674 ft 197 kts
2026-05-04 13:27 51.32725 11.50202 9672 ft 197 kts
2026-05-04 13:27 51.34088 11.50439 9673 ft 197 kts
2026-05-04 13:27 51.35453 11.50677 9673 ft 197 kts
2026-05-04 13:27 51.36813 11.50913 9671 ft 196 kts
2026-05-04 13:28 51.38173 11.51148 9674 ft 197 kts
2026-05-04 13:28 51.39518 11.51382 9674 ft 197 kts
2026-05-04 13:28 51.40881 11.51619 9671 ft 197 kts
2026-05-04 13:28 51.42243 11.51856 9670 ft 196 kts
2026-05-04 13:29 51.43602 11.52093 9666 ft 196 kts
2026-05-04 13:29 51.44961 11.52329 9665 ft 196 kts
2026-05-04 13:29 51.46323 11.52567 9665 ft 196 kts
2026-05-04 13:29 51.47685 11.52803 9663 ft 197 kts
2026-05-04 13:30 51.49043 11.53042 9673 ft 196 kts
2026-05-04 13:30 51.50378 11.53275 9672 ft 195 kts
2026-05-04 13:30 51.51726 11.53511 9673 ft 195 kts
2026-05-04 13:30 51.53074 11.53747 9663 ft 194 kts
2026-05-04 13:31 51.54417 11.53983 9669 ft 194 kts
2026-05-04 13:31 51.55762 11.54216 9670 ft 194 kts
2026-05-04 13:31 51.57107 11.54450 9673 ft 195 kts
2026-05-04 13:31 51.58457 11.54690 9674 ft 195 kts
2026-05-04 13:32 51.59804 11.54925 9675 ft 195 kts
2026-05-04 13:32 51.61150 11.55160 9678 ft 194 kts
2026-05-04 13:32 51.62496 11.55397 9676 ft 195 kts
2026-05-04 13:32 51.63828 11.55631 9677 ft 195 kts
2026-05-04 13:33 51.65175 11.55869 9679 ft 194 kts
2026-05-04 13:33 51.66518 11.56105 9680 ft 194 kts
2026-05-04 13:33 51.67862 11.56339 9682 ft 194 kts
2026-05-04 13:33 51.69210 11.56571 9684 ft 195 kts
2026-05-04 13:34 51.70530 11.56804 9438 ft 186 kts
2026-05-04 13:34 51.71857 11.57050 8841 ft 194 kts
2026-05-04 13:34 51.73194 11.57283 8462 ft 193 kts
2026-05-04 13:34 51.74522 11.57507 8169 ft 191 kts
2026-05-04 13:35 51.75835 11.57739 7866 ft 190 kts
2026-05-04 13:35 51.78425 11.58208 7075 ft 186 kts
2026-05-04 13:35 51.79691 11.58432 6618 ft 184 kts
2026-05-04 13:36 51.80927 11.58949 6156 ft 185 kts 22°
2026-05-04 13:36 51.82080 11.59866 5695 ft 184 kts 24°
2026-05-04 13:36 51.83221 11.60782 5255 ft 182 kts 25°
2026-05-04 13:36 51.84349 11.61684 4816 ft 181 kts 24°
2026-05-04 13:37 51.85477 11.62590 4410 ft 179 kts 24°
2026-05-04 13:37 51.86590 11.63479 4008 ft 177 kts 24°
2026-05-04 13:37 51.87696 11.64358 3616 ft 176 kts 25°
2026-05-04 13:37 51.88422 11.64919 3385 ft 174 kts 22°
2026-05-04 13:38 51.89917 11.65796 2896 ft 170 kts
2026-05-04 13:38 51.91085 11.65834 2513 ft 168 kts 355°
2026-05-04 13:38 51.92246 11.65708 2151 ft 166 kts 355°
2026-05-04 13:38 51.93370 11.65579 1982 ft 154 kts 354°
2026-05-04 13:39 51.94432 11.65463 1980 ft 155 kts 353°
2026-05-04 13:39 51.95528 11.65356 1970 ft 159 kts 353°
2026-05-04 13:39 51.96645 11.65294 1986 ft 163 kts 354°
2026-05-04 13:39 51.97790 11.65227 1980 ft 165 kts 353°
2026-05-04 13:40 51.98939 11.65134 1985 ft 166 kts 354°
2026-05-04 13:40 52.00070 11.65050 1749 ft 163 kts 354°
2026-05-04 13:40 52.01219 11.64972 1477 ft 160 kts 355°
2026-05-04 13:40 52.02269 11.64910 1464 ft 148 kts 354°
2026-05-04 13:41 52.03242 11.64824 1505 ft 132 kts 346°
2026-05-04 13:41 52.04058 11.64481 1457 ft 117 kts 339°
2026-05-04 13:41 52.04825 11.64046 1279 ft 118 kts 334°
2026-05-04 13:42 52.06319 11.63258 883 ft 116 kts 22°
2026-05-04 13:42 52.06801 11.64306 751 ft 114 kts 61°
2026-05-04 13:42 52.07178 11.65402 663 ft 111 kts 57°
2026-05-04 13:42 52.07582 11.66456 636 ft 107 kts 46°
2026-05-04 13:43 52.08164 11.66508 677 ft 94 kts 299°
2026-05-04 13:43 52.07914 11.65600 608 ft 101 kts 222°
2026-05-04 13:43 52.07509 11.64756 487 ft 86 kts 244°
2026-05-04 13:43 52.07381 11.63889 343 ft 77 kts 271°
2026-05-04 13:44 52.07373 11.63070 258 ft 65 kts 270°
2026-05-04 13:44 52.07363 11.62509 264 ft 39 kts 268°
2026-05-04 13:44 52.07355 11.62142 272 ft 28 kts 268°
2026-05-04 13:44 52.07362 11.61880 273 ft 18 kts 315°
2026-05-04 13:45 52.07497 11.61915 267 ft 19 kts 12°
2026-05-04 13:45 52.07638 11.61980 261 ft 15 kts 23°
2026-05-04 13:45 52.07695 11.62067 263 ft 12 kts
2026-05-04 13:45 52.07692 11.62098 263 ft 7 kts 229°
2026-05-04 13:46 52.07689 11.62087 262 ft 0 kts 244°